| time (UTC) | temp C | wind direction | speed KPH | gust KPH | rain 1hr cm | rain 24hr cm | rain mn cm | humidity % | barometer mb |
| 20260507115044 | 7 | 243 | 8.0 | 12.9 | 0.00 | 0.00 | 0.00 | 84 | 1012.4 |
| 20260507114544 | 7 | 249 | 6.4 | 12.9 | 0.00 | 0.00 | 0.00 | 84 | 1012.4 |
| 20260507114044 | 7 | 234 | 8.0 | 14.5 | 0.00 | 0.00 | 0.00 | 83 | 1012.4 |
| 20260507113043 | 7 | 246 | 6.4 | 12.9 | 0.00 | 0.00 | 0.00 | 83 | 1012.4 |
| 20260507112543 | 7 | 250 | 6.4 | 14.5 | 0.00 | 0.00 | 0.00 | 82 | 1012.4 |
| 20260507112043 | 7 | 232 | 6.4 | 14.5 | 0.00 | 0.00 | 0.00 | 82 | 1012.4 |
| 20260507111543 | 7 | 244 | 8.0 | 16.1 | 0.00 | 0.00 | 0.00 | 82 | 1012.4 |
| 20260507111043 | 7 | 235 | 8.0 | 16.1 | 0.00 | 0.00 | 0.00 | 82 | 1012.3 |
| 20260507110544 | 7 | 246 | 8.0 | 14.5 | 0.00 | 0.00 | 0.00 | 81 | 1012.4 |
| 20260507110043 | 7 | 237 | 6.4 | 14.5 | 0.00 | 0.00 | 0.00 | 81 | 1012.4 |
| 20260507105543 | 7 | 239 | 6.4 | 11.3 | 0.00 | 0.00 | 0.00 | 81 | 1012.3 |
| 20260507105043 | 7 | 236 | 4.8 | 12.9 | 0.00 | 0.00 | 0.00 | 81 | 1012.3 |
| 20260507104543 | 7 | 244 | 9.7 | 12.9 | 0.00 | 0.00 | 0.00 | 80 | 1012.3 |
| 20260507103543 | 7 | 233 | 6.4 | 20.9 | 0.00 | 0.00 | 0.00 | 80 | 1012.4 |
| 20260507103043 | 8 | 228 | 8.0 | 14.5 | 0.00 | 0.00 | 0.00 | 80 | 1012.4 |
| 20260507102545 | 8 | 235 | 6.4 | 14.5 | 0.00 | 0.00 | 0.00 | 80 | 1012.4 |
| 20260507102043 | 7 | 245 | 8.0 | 14.5 | 0.00 | 0.00 | 0.00 | 80 | 1012.4 |
| 20260507101043 | 7 | 230 | 6.4 | 12.9 | 0.00 | 0.00 | 0.00 | 79 | 1012.4 |
| 20260507100543 | 8 | 219 | 4.8 | 11.3 | 0.00 | 0.00 | 0.00 | 78 | 1012.5 |
| 20260507100044 | 8 | 247 | 8.0 | 14.5 | 0.00 | 0.00 | 0.00 | 78 | 1012.5 |
| 20260507095543 | 8 | 237 | 6.4 | 14.5 | 0.00 | 0.00 | 0.00 | 78 | 1012.5 |
| 20260507094543 | 8 | 244 | 8.0 | 12.9 | 0.00 | 0.00 | 0.00 | 77 | 1012.6 |
| 20260507094044 | 8 | 233 | 4.8 | 12.9 | 0.00 | 0.00 | 0.00 | 77 | 1012.7 |
| 20260507093543 | 8 | 243 | 4.8 | 9.7 | 0.00 | 0.00 | 0.00 | 76 | 1012.7 |
| 20260507093043 | 8 | 244 | 6.4 | 14.5 | 0.00 | 0.00 | 0.00 | 76 | 1012.8 |
| 20260507092543 | 8 | 239 | 4.8 | 14.5 | 0.00 | 0.00 | 0.00 | 76 | 1012.8 |
| 20260507092043 | 8 | 244 | 4.8 | 12.9 | 0.00 | 0.00 | 0.00 | 76 | 1012.9 |
| 20260507091543 | 7 | 254 | 6.4 | 12.9 | 0.00 | 0.00 | 0.00 | 75 | 1012.9 |
| 20260507090544 | 7 | 252 | 3.2 | 11.3 | 0.00 | 0.00 | 0.00 | 74 | 1013.0 |
| 20260507090043 | 8 | 246 | 4.8 | 11.3 | 0.00 | 0.00 | 0.00 | 73 | 1013.0 |
| 20260507085543 | 7 | 238 | 4.8 | 11.3 | 0.00 | 0.00 | 0.00 | 72 | 1013.1 |
| 20260507085044 | 8 | 253 | 4.8 | 9.7 | 0.00 | 0.00 | 0.00 | 71 | 1013.3 |
| 20260507084544 | 8 | 241 | 4.8 | 12.9 | 0.00 | 0.00 | 0.00 | 70 | 1013.4 |
| 20260507084044 | 8 | 245 | 4.8 | 12.9 | 0.00 | 0.00 | 0.00 | 70 | 1013.4 |
| 20260507083043 | 8 | 249 | 8.0 | 12.9 | 0.00 | 0.00 | 0.00 | 68 | 1013.4 |
| 20260507082544 | 8 | 246 | 8.0 | 14.5 | 0.00 | 0.00 | 0.00 | 68 | 1013.6 |
| 20260507082044 | 8 | 256 | 9.7 | 14.5 | 0.00 | 0.00 | 0.00 | 68 | 1013.6 |
| 20260507081543 | 8 | 260 | 9.7 | 12.9 | 0.00 | 0.00 | 0.00 | 67 | 1013.6 |
| 20260507080544 | 8 | 255 | 9.7 | 14.5 | 0.00 | 0.00 | 0.00 | 66 | 1013.7 |
| 20260507080045 | 8 | 255 | 8.0 | 16.1 | 0.00 | 0.00 | 0.00 | 65 | 1013.6 |
| 20260507075543 | 8 | 248 | 9.7 | 14.5 | 0.00 | 0.00 | 0.00 | 64 | 1013.7 |
| 20260507075044 | 8 | 254 | 8.0 | 12.9 | 0.00 | 0.00 | 0.00 | 64 | 1013.7 |
| 20260507074543 | 9 | 253 | 8.0 | 14.5 | 0.00 | 0.00 | 0.00 | 63 | 1013.7 |
| 20260507073544 | 9 | 255 | 8.0 | 12.9 | 0.00 | 0.00 | 0.00 | 61 | 1013.8 |
| 20260507073043 | 8 | 252 | 8.0 | 14.5 | 0.00 | 0.00 | 0.00 | 61 | 1013.9 |
| 20260507072544 | 9 | 247 | 4.8 | 12.9 | 0.00 | 0.00 | 0.00 | 59 | 1014.0 |
| 20260507072043 | 9 | 253 | 4.8 | 11.3 | 0.00 | 0.00 | 0.00 | 58 | 1014.1 |
| 20260507071044 | 9 | 260 | 6.4 | 16.1 | 0.00 | 0.00 | 0.00 | 57 | 1014.2 |
| 20260507070543 | 9 | 241 | 4.8 | 12.9 | 0.00 | 0.00 | 0.00 | 56 | 1014.3 |
| 20260507070044 | 9 | 251 | 8.0 | 11.3 | 0.00 | 0.00 | 0.00 | 56 | 1014.4 |
| 20260507065544 | 9 | 260 | 6.4 | 12.9 | 0.00 | 0.00 | 0.00 | 55 | 1014.4 |
| 20260507065043 | 9 | 243 | 3.2 | 9.7 | 0.00 | 0.00 | 0.00 | 54 | 1014.4 |
| 20260507064544 | 9 | 242 | 3.2 | 12.9 | 0.00 | 0.00 | 0.00 | 53 | 1014.5 |
| 20260507064043 | 9 | 236 | 3.2 | 11.3 | 0.00 | 0.00 | 0.00 | 52 | 1014.6 |
| 20260507063544 | 9 | 236 | 3.2 | 8.0 | 0.00 | 0.00 | 0.00 | 51 | 1014.6 |
| 20260507063044 | 9 | 221 | 3.2 | 9.7 | 0.00 | 0.00 | 0.00 | 51 | 1014.6 |
| 20260507062544 | 10 | 205 | 1.6 | 8.0 | 0.00 | 0.00 | 0.00 | 50 | 1014.7 |
| 20260507062044 | 10 | 255 | 1.6 | 9.7 | 0.00 | 0.00 | 0.00 | 49 | 1014.8 |
| 20260507061544 | 10 | 233 | 3.2 | 9.7 | 0.00 | 0.00 | 0.00 | 49 | 1014.7 |
| 20260507061044 | 10 | 235 | 1.6 | 8.0 | 0.00 | 0.00 | 0.00 | 49 | 1014.8 |
| 20260507060044 | 10 | 231 | 1.6 | 9.7 | 0.00 | 0.00 | 0.00 | 49 | 1014.9 |
| 20260507055544 | 9 | 238 | 3.2 | 9.7 | 0.00 | 0.00 | 0.00 | 50 | 1014.9 |
| 20260507055044 | 9 | 241 | 1.6 | 9.7 | 0.00 | 0.00 | 0.00 | 50 | 1014.9 |
| 20260507054544 | 9 | 230 | 1.6 | 8.0 | 0.00 | 0.00 | 0.00 | 50 | 1014.9 |
| 20260507054045 | 8 | 211 | 0.0 | 4.8 | 0.00 | 0.00 | 0.00 | 50 | 1014.8 |
| 20260507053544 | 8 | 195 | 0.0 | 4.8 | 0.00 | 0.00 | 0.00 | 50 | 1014.7 |
| 20260507053043 | 8 | 200 | 1.6 | 4.8 | 0.00 | 0.00 | 0.00 | 50 | 1014.7 |
| 20260507050544 | 8 | 209 | 0.0 | 3.2 | 0.00 | 0.00 | 0.00 | 48 | 1014.9 |
| 20260507050044 | 8 | 172 | 0.0 | 3.2 | 0.00 | 0.00 | 0.00 | 48 | 1014.9 |
| 20260507045544 | 8 | 189 | 0.0 | 0.0 | 0.00 | 0.00 | 0.00 | 48 | 1014.9 |
| 20260507045043 | 8 | 189 | 0.0 | 1.6 | 0.00 | 0.00 | 0.00 | 48 | 1014.9 |
| 20260507044544 | 8 | 176 | 0.0 | 1.6 | 0.00 | 0.00 | 0.00 | 47 | 1015.0 |
| 20260507043544 | 8 | 205 | 0.0 | 0.0 | 0.00 | 0.00 | 0.00 | 46 | 1015.1 |
| 20260507043043 | 8 | 205 | 0.0 | 0.0 | 0.00 | 0.00 | 0.00 | 46 | 1015.1 |
| 20260507042543 | 8 | 205 | 0.0 | 3.2 | 0.00 | 0.00 | 0.00 | 46 | 1015.2 |
| 20260507042044 | 9 | 176 | 0.0 | 3.2 | 0.00 | 0.00 | 0.00 | 46 | 1015.2 |
| 20260507041544 | 8 | 155 | 1.6 | 3.2 | 0.00 | 0.00 | 0.00 | 45 | 1015.2 |
| 20260507041044 | 8 | 171 | 0.0 | 0.0 | 0.00 | 0.00 | 0.00 | 45 | 1015.2 |
| 20260507040544 | 8 | 171 | 0.0 | 0.0 | 0.00 | 0.00 | 0.00 | 44 | 1015.3 |
| 20260507040044 | 8 | 171 | 0.0 | 3.2 | 0.00 | 0.00 | 0.00 | 44 | 1015.3 |
| 20260507035544 | 8 | 181 | 0.0 | 3.2 | 0.00 | 0.00 | 0.00 | 45 | 1015.3 |
| 20260507035043 | 8 | 0 | 0.0 | 0.0 | 0.00 | 0.00 | 0.00 | 46 | 1015.3 |
| 20260507034543 | 8 | 0 | 0.0 | 0.0 | 0.00 | 0.00 | 0.00 | 46 | 1015.4 |
| 20260507034044 | 8 | 0 | 0.0 | 0.0 | 0.00 | 0.00 | 0.00 | 46 | 1015.4 |
| 20260507033544 | 8 | 0 | 0.0 | 0.0 | 0.00 | 0.00 | 0.00 | 47 | 1015.4 |
| 20260507033044 | 8 | 0 | 0.0 | 0.0 | 0.00 | 0.00 | 0.00 | 47 | 1015.4 |
| 20260507032044 | 8 | 0 | 0.0 | 0.0 | 0.00 | 0.00 | 0.00 | 47 | 1015.6 |
| 20260507031544 | 8 | 0 | 0.0 | 0.0 | 0.00 | 0.00 | 0.00 | 47 | 1015.6 |
| 20260507030544 | 8 | 0 | 0.0 | 0.0 | 0.00 | 0.00 | 0.00 | 45 | 1015.4 |
| 20260507030044 | 9 | 0 | 0.0 | 0.0 | 0.00 | 0.00 | 0.00 | 44 | 1015.4 |
| 20260507025044 | 9 | 0 | 0.0 | 0.0 | 0.00 | 0.00 | 0.00 | 43 | 1015.4 |
| 20260507024544 | 9 | 0 | 0.0 | 0.0 | 0.00 | 0.00 | 0.00 | 43 | 1015.4 |
| 20260507024044 | 10 | 0 | 0.0 | 0.0 | 0.00 | 0.00 | 0.00 | 43 | 1015.3 |
| 20260507023544 | 10 | 0 | 0.0 | 0.0 | 0.00 | 0.00 | 0.00 | 43 | 1015.3 |
| 20260507023044 | 10 | 0 | 0.0 | 0.0 | 0.00 | 0.00 | 0.00 | 43 | 1015.2 |
| 20260507022544 | 10 | 0 | 0.0 | 0.0 | 0.00 | 0.00 | 0.00 | 42 | 1015.2 |
| 20260507022044 | 10 | 0 | 0.0 | 0.0 | 0.00 | 0.00 | 0.00 | 42 | 1015.2 |
| 20260507021544 | 10 | 0 | 0.0 | 0.0 | 0.00 | 0.00 | 0.00 | 42 | 1015.2 |
| 20260507020544 | 10 | 0 | 0.0 | 0.0 | 0.00 | 0.00 | 0.00 | 42 | 1015.0 |
| 20260507020044 | 11 | 0 | 0.0 | 0.0 | 0.00 | 0.00 | 0.00 | 41 | 1015.0 |
| 20260507015544 | 11 | 0 | 0.0 | 0.0 | 0.00 | 0.00 | 0.00 | 40 | 1015.0 |
| 20260507015045 | 11 | 0 | 0.0 | 0.0 | 0.00 | 0.00 | 0.00 | 40 | 1015.0 |
| 20260507014044 | 12 | 0 | 0.0 | 0.0 | 0.00 | 0.00 | 0.00 | 40 | 1015.0 |
| 20260507013544 | 12 | 0 | 0.0 | 0.0 | 0.00 | 0.00 | 0.00 | 39 | 1015.1 |
| 20260507012544 | 12 | 0 | 0.0 | 0.0 | 0.00 | 0.00 | 0.00 | 37 | 1015.1 |
| 20260507012044 | 13 | 0 | 0.0 | 0.0 | 0.00 | 0.00 | 0.00 | 37 | 1015.1 |
| 20260507011545 | 13 | 0 | 0.0 | 0.0 | 0.00 | 0.00 | 0.00 | 34 | 1015.1 |
| 20260507011044 | 13 | 0 | 0.0 | 0.0 | 0.00 | 0.00 | 0.00 | 34 | 1015.1 |
| 20260507010044 | 14 | 0 | 0.0 | 0.0 | 0.00 | 0.00 | 0.00 | 33 | 1015.1 |
| 20260507005544 | 14 | 0 | 0.0 | 3.2 | 0.00 | 0.00 | 0.00 | 33 | 1015.1 |
| 20260507004544 | 15 | 349 | 0.0 | 8.0 | 0.00 | 0.00 | 0.00 | 31 | 1015.2 |
| 20260507004044 | 15 | 346 | 1.6 | 11.3 | 0.00 | 0.00 | 0.00 | 31 | 1015.2 |
| 20260507003544 | 15 | 332 | 9.7 | 11.3 | 0.00 | 0.00 | 0.00 | 28 | 1015.1 |
| 20260507003044 | 15 | 348 | 1.6 | 8.0 | 0.00 | 0.00 | 0.00 | 28 | 1015.2 |
| 20260507002543 | 16 | 334 | 3.2 | 9.7 | 0.00 | 0.00 | 0.00 | 26 | 1015.2 |
| 20260507002044 | 16 | 307 | 4.8 | 11.3 | 0.00 | 0.00 | 0.00 | 26 | 1015.1 |
| 20260507001544 | 16 | 305 | 3.2 | 8.0 | 0.00 | 0.00 | 0.00 | 25 | 1015.2 |
| 20260507001044 | 16 | 287 | 1.6 | 12.9 | 0.00 | 0.00 | 0.00 | 26 | 1015.2 |
| 20260507000544 | 16 | 300 | 4.8 | 11.3 | 0.00 | 0.00 | 0.00 | 26 | 1015.3 |
| 20260507000044 | 16 | 331 | 11.3 | 16.1 | 0.00 | 0.00 | 0.00 | 25 | 1015.2 |
| 20260506235044 | 17 | 299 | 6.4 | 14.5 | 0.00 | 0.00 | 0.00 | 24 | 1015.3 |
| 20260506234543 | 17 | 301 | 8.0 | 14.5 | 0.00 | 0.00 | 0.00 | 24 | 1015.4 |
| 20260506234044 | 17 | 310 | 8.0 | 16.1 | 0.00 | 0.00 | 0.00 | 23 | 1015.4 |
| 20260506233545 | 17 | 331 | 6.4 | 16.1 | 0.00 | 0.00 | 0.00 | 24 | 1015.6 |
| 20260506232544 | 16 | 315 | 4.8 | 19.3 | 0.00 | 0.00 | 0.00 | 25 | 1015.4 |
| 20260506232044 | 16 | 310 | 8.0 | 16.1 | 0.00 | 0.00 | 0.00 | 24 | 1015.6 |
| 20260506231544 | 16 | 322 | 8.0 | 16.1 | 0.00 | 0.00 | 0.00 | 25 | 1015.6 |
| 20260506231044 | 16 | 335 | 4.8 | 19.3 | 0.00 | 0.00 | 0.00 | 25 | 1015.7 |
| 20260506230544 | 16 | 325 | 11.3 | 19.3 | 0.00 | 0.00 | 0.00 | 25 | 1015.6 |
| 20260506230044 | 16 | 330 | 8.0 | 14.5 | 0.00 | 0.00 | 0.00 | 26 | 1015.6 |
| 20260506225544 | 16 | 332 | 11.3 | 20.9 | 0.00 | 0.00 | 0.00 | 24 | 1015.7 |
| 20260506225044 | 16 | 328 | 3.2 | 12.9 | 0.00 | 0.00 | 0.00 | 26 | 1015.7 |
| 20260506224544 | 16 | 329 | 8.0 | 19.3 | 0.00 | 0.00 | 0.00 | 25 | 1015.6 |
| 20260506224044 | 17 | 323 | 11.3 | 19.3 | 0.00 | 0.00 | 0.00 | 25 | 1015.7 |
| 20260506223544 | 17 | 326 | 9.7 | 19.3 | 0.00 | 0.00 | 0.00 | 25 | 1015.7 |
| 20260506223044 | 17 | 330 | 9.7 | 19.3 | 0.00 | 0.00 | 0.00 | 25 | 1015.7 |
| 20260506222545 | 17 | 322 | 3.2 | 11.3 | 0.00 | 0.00 | 0.00 | 24 | 1015.7 |
| 20260506222045 | 17 | 341 | 4.8 | 14.5 | 0.00 | 0.00 | 0.00 | 25 | 1015.7 |
| 20260506221049 | 17 | 275 | 8.0 | 14.5 | 0.00 | 0.00 | 0.00 | 26 | 1016.0 |
| 20260506220044 | 17 | 333 | 6.4 | 12.9 | 0.00 | 0.00 | 0.00 | 25 | 1016.1 |
| 20260506215046 | 16 | 301 | 6.4 | 19.3 | 0.00 | 0.00 | 0.00 | 27 | 1016.3 |
| 20260506214544 | 16 | 310 | 8.0 | 25.7 | 0.00 | 0.00 | 0.00 | 26 | 1016.2 |
| 20260506214049 | 16 | 274 | 1.6 | 12.9 | 0.00 | 0.00 | 0.00 | 26 | 1016.4 |
| 20260506213545 | 16 | 331 | 11.3 | 19.3 | 0.00 | 0.00 | 0.00 | 26 | 1016.4 |
| 20260506213044 | 16 | 321 | 8.0 | 14.5 | 0.00 | 0.00 | 0.00 | 27 | 1016.4 |
| 20260506212545 | 16 | 300 | 8.0 | 14.5 | 0.00 | 0.00 | 0.00 | 27 | 1016.5 |
| 20260506212044 | 16 | 323 | 11.3 | 24.1 | 0.00 | 0.00 | 0.00 | 26 | 1016.5 |
| 20260506211544 | 16 | 315 | 6.4 | 24.1 | 0.00 | 0.00 | 0.00 | 26 | 1016.6 |
| 20260506211044 | 16 | 304 | 3.2 | 12.9 | 0.00 | 0.00 | 0.00 | 25 | 1016.7 |
| 20260506210044 | 17 | 320 | 6.4 | 14.5 | 0.00 | 0.00 | 0.00 | 26 | 1016.9 |
| 20260506205544 | 16 | 301 | 8.0 | 19.3 | 0.00 | 0.00 | 0.00 | 28 | 1017.0 |
| 20260506205045 | 16 | 321 | 8.0 | 16.1 | 0.00 | 0.00 | 0.00 | 26 | 1017.1 |
| 20260506204545 | 16 | 316 | 9.7 | 19.3 | 0.00 | 0.00 | 0.00 | 28 | 1017.2 |
| 20260506204044 | 16 | 308 | 11.3 | 27.4 | 0.00 | 0.00 | 0.00 | 31 | 1017.2 |
| 20260506203544 | 15 | 304 | 6.4 | 11.3 | 0.00 | 0.00 | 0.00 | 30 | 1017.3 |
| 20260506203045 | 15 | 316 | 4.8 | 16.1 | 0.00 | 0.00 | 0.00 | 27 | 1017.3 |
| 20260506202544 | 15 | 315 | 4.8 | 12.9 | 0.00 | 0.00 | 0.00 | 27 | 1017.3 |
| 20260506202045 | 15 | 310 | 11.3 | 22.5 | 0.00 | 0.00 | 0.00 | 27 | 1017.4 |
| 20260506201545 | 15 | 283 | 9.7 | 20.9 | 0.00 | 0.00 | 0.00 | 28 | 1017.4 |
| 20260506201044 | 15 | 322 | 11.3 | 22.5 | 0.00 | 0.00 | 0.00 | 29 | 1017.4 |
| 20260506200544 | 15 | 338 | 8.0 | 20.9 | 0.00 | 0.00 | 0.00 | 32 | 1017.5 |
| 20260506200045 | 15 | 328 | 11.3 | 16.1 | 0.00 | 0.00 | 0.00 | 31 | 1017.6 |
| 20260506195545 | 15 | 332 | 9.7 | 22.5 | 0.00 | 0.00 | 0.00 | 30 | 1017.6 |
| 20260506194545 | 15 | 317 | 8.0 | 20.9 | 0.00 | 0.00 | 0.00 | 29 | 1017.7 |
| 20260506194044 | 16 | 327 | 11.3 | 16.1 | 0.00 | 0.00 | 0.00 | 27 | 1017.7 |
| 20260506193545 | 16 | 307 | 6.4 | 12.9 | 0.00 | 0.00 | 0.00 | 31 | 1017.7 |
| 20260506193045 | 16 | 305 | 9.7 | 19.3 | 0.00 | 0.00 | 0.00 | 27 | 1017.9 |
| 20260506192044 | 15 | 324 | 11.3 | 20.9 | 0.00 | 0.00 | 0.00 | 30 | 1017.9 |
| 20260506191044 | 15 | 320 | 14.5 | 20.9 | 0.00 | 0.00 | 0.00 | 31 | 1017.9 |
| 20260506190544 | 15 | 324 | 11.3 | 20.9 | 0.00 | 0.00 | 0.00 | 29 | 1017.9 |
| 20260506190044 | 15 | 344 | 4.8 | 14.5 | 0.00 | 0.00 | 0.00 | 33 | 1017.9 |
| 20260506185545 | 15 | 298 | 4.8 | 22.5 | 0.00 | 0.00 | 0.00 | 30 | 1017.9 |
| 20260506185044 | 15 | 294 | 9.7 | 20.9 | 0.00 | 0.00 | 0.00 | 30 | 1018.0 |
| 20260506184544 | 15 | 312 | 6.4 | 19.3 | 0.00 | 0.00 | 0.00 | 29 | 1018.1 |
| 20260506184044 | 16 | 249 | 8.0 | 19.3 | 0.00 | 0.00 | 0.00 | 30 | 1018.2 |
| 20260506183544 | 15 | 315 | 9.7 | 12.9 | 0.00 | 0.00 | 0.00 | 31 | 1018.2 |
| 20260506183045 | 15 | 330 | 4.8 | 20.9 | 0.00 | 0.00 | 0.00 | 37 | 1018.3 |
| 20260506182545 | 15 | 348 | 8.0 | 14.5 | 0.00 | 0.00 | 0.00 | 32 | 1018.4 |
| 20260506182045 | 15 | 311 | 8.0 | 16.1 | 0.00 | 0.00 | 0.00 | 31 | 1018.5 |
| 20260506181544 | 14 | 337 | 3.2 | 14.5 | 0.00 | 0.00 | 0.00 | 35 | 1018.4 |
| 20260506181044 | 15 | 326 | 19.3 | 25.7 | 0.00 | 0.00 | 0.00 | 33 | 1018.4 |
| 20260506180544 | 15 | 310 | 8.0 | 20.9 | 0.00 | 0.00 | 0.00 | 29 | 1018.5 |
| 20260506180044 | 15 | 302 | 8.0 | 14.5 | 0.00 | 0.00 | 0.00 | 31 | 1018.5 |
| 20260506175544 | 15 | 285 | 9.7 | 19.3 | 0.00 | 0.00 | 0.00 | 34 | 1018.7 |
| 20260506175044 | 14 | 334 | 9.7 | 22.5 | 0.00 | 0.00 | 0.00 | 34 | 1018.7 |
| 20260506174044 | 14 | 321 | 4.8 | 14.5 | 0.00 | 0.00 | 0.00 | 32 | 1018.8 |
| 20260506173545 | 14 | 318 | 4.8 | 12.9 | 0.00 | 0.00 | 0.00 | 31 | 1018.9 |
| 20260506173045 | 14 | 299 | 8.0 | 19.3 | 0.00 | 0.00 | 0.00 | 35 | 1018.9 |
| 20260506172545 | 15 | 293 | 9.7 | 20.9 | 0.00 | 0.00 | 0.00 | 32 | 1019.0 |
| 20260506172044 | 14 | 289 | 4.8 | 16.1 | 0.00 | 0.00 | 0.00 | 37 | 1018.9 |
| 20260506171044 | 14 | 312 | 6.4 | 20.9 | 0.00 | 0.00 | 0.00 | 34 | 1019.2 |
| 20260506170544 | 14 | 312 | 11.3 | 22.5 | 0.00 | 0.00 | 0.00 | 33 | 1019.2 |
| 20260506170045 | 13 | 306 | 8.0 | 14.5 | 0.00 | 0.00 | 0.00 | 33 | 1019.2 |
| 20260506165044 | 13 | 320 | 8.0 | 14.5 | 0.00 | 0.00 | 0.00 | 34 | 1019.2 |
| 20260506164044 | 13 | 317 | 14.5 | 20.9 | 0.00 | 0.00 | 0.00 | 32 | 1019.2 |
| 20260506163545 | 13 | 320 | 8.0 | 19.3 | 0.00 | 0.00 | 0.00 | 32 | 1019.3 |
| 20260506163045 | 13 | 333 | 14.5 | 24.1 | 0.00 | 0.00 | 0.00 | 32 | 1019.2 |
| 20260506162545 | 13 | 320 | 12.9 | 22.5 | 0.00 | 0.00 | 0.00 | 31 | 1019.2 |
| 20260506162044 | 13 | 352 | 11.3 | 19.3 | 0.00 | 0.00 | 0.00 | 35 | 1019.2 |
| 20260506161544 | 13 | 316 | 6.4 | 14.5 | 0.00 | 0.00 | 0.00 | 33 | 1019.1 |
| 20260506155545 | 12 | 309 | 4.8 | 14.5 | 0.00 | 0.00 | 0.00 | 36 | 1019.1 |
| 20260506155046 | 12 | 313 | 8.0 | 19.3 | 0.00 | 0.00 | 0.00 | 32 | 1019.2 |
| 20260506154544 | 13 | 312 | 4.8 | 14.5 | 0.00 | 0.00 | 0.00 | 35 | 1019.0 |
| 20260506154044 | 12 | 337 | 8.0 | 14.5 | 0.00 | 0.00 | 0.00 | 38 | 1019.0 |
| 20260506153045 | 12 | 330 | 4.8 | 12.9 | 0.00 | 0.00 | 0.00 | 39 | 1019.0 |
| 20260506152045 | 12 | 344 | 8.0 | 11.3 | 0.00 | 0.00 | 0.00 | 40 | 1019.1 |
| 20260506151045 | 12 | 332 | 6.4 | 9.7 | 0.00 | 0.00 | 0.00 | 42 | 1019.1 |
| 20260506150044 | 11 | 351 | 8.0 | 14.5 | 0.00 | 0.00 | 0.00 | 42 | 1019.2 |
| 20260506145544 | 11 | 332 | 9.7 | 14.5 | 0.00 | 0.00 | 0.00 | 40 | 1019.2 |
| 20260506144546 | 11 | 319 | 1.6 | 3.2 | 0.00 | 0.00 | 0.00 | 43 | 1019.1 |
| 20260506144045 | 11 | 338 | 4.8 | 12.9 | 0.00 | 0.00 | 0.00 | 41 | 1019.2 |
| 20260506143545 | 11 | 335 | 1.6 | 11.3 | 0.00 | 0.00 | 0.00 | 43 | 1019.2 |
| 20260506143045 | 11 | 330 | 4.8 | 11.3 | 0.00 | 0.00 | 0.00 | 43 | 1019.2 |
| 20260506142545 | 11 | 357 | 3.2 | 8.0 | 0.00 | 0.00 | 0.00 | 46 | 1019.2 |
| 20260506142044 | 10 | 338 | 3.2 | 8.0 | 0.00 | 0.00 | 0.00 | 45 | 1019.1 |
| 20260506141545 | 10 | 340 | 4.8 | 9.7 | 0.00 | 0.00 | 0.00 | 46 | 1019.0 |
| 20260506141045 | 10 | 314 | 3.2 | 9.7 | 0.00 | 0.00 | 0.00 | 47 | 1019.1 |
| 20260506140045 | 10 | 326 | 1.6 | 4.8 | 0.00 | 0.00 | 0.00 | 47 | 1019.0 |
| 20260506135545 | 10 | 306 | 0.0 | 3.2 | 0.00 | 0.00 | 0.00 | 50 | 1019.0 |
| 20260506135045 | 9 | 313 | 1.6 | 4.8 | 0.00 | 0.00 | 0.00 | 51 | 1018.9 |
| 20260506134546 | 9 | 309 | 0.0 | 3.2 | 0.00 | 0.00 | 0.00 | 51 | 1018.9 |
| 20260506134044 | 8 | 295 | 1.6 | 4.8 | 0.00 | 0.00 | 0.00 | 51 | 1018.8 |
| 20260506133545 | 8 | 312 | 0.0 | 3.2 | 0.00 | 0.00 | 0.00 | 55 | 1018.8 |
| 20260506133045 | 8 | 323 | 0.0 | 4.8 | 0.00 | 0.00 | 0.00 | 55 | 1018.7 |
| 20260506132545 | 8 | 322 | 0.0 | 4.8 | 0.00 | 0.00 | 0.00 | 54 | 1018.7 |
| 20260506132045 | 7 | 317 | 0.0 | 4.8 | 0.00 | 0.00 | 0.00 | 57 | 1018.6 |
| 20260506131545 | 7 | 313 | 0.0 | 3.2 | 0.00 | 0.00 | 0.00 | 59 | 1018.6 |
| 20260506130045 | 6 | 287 | 1.6 | 4.8 | 0.00 | 0.00 | 0.00 | 61 | 1018.4 |
| 20260506125545 | 6 | 320 | 1.6 | 8.0 | 0.00 | 0.00 | 0.00 | 64 | 1018.3 |
| 20260506125045 | 6 | 313 | 3.2 | 4.8 | 0.00 | 0.00 | 0.00 | 64 | 1018.2 |
| 20260506124545 | 6 | 315 | 0.0 | 3.2 | 0.00 | 0.00 | 0.00 | 65 | 1018.2 |
| 20260506124045 | 6 | 346 | 0.0 | 0.0 | 0.00 | 0.00 | 0.00 | 65 | 1018.0 |
| 20260506123545 | 5 | 346 | 0.0 | 0.0 | 0.00 | 0.00 | 0.00 | 65 | 1017.9 |
| 20260506123045 | 5 | 346 | 0.0 | 0.0 | 0.00 | 0.00 | 0.00 | 66 | 1017.7 |
| 20260506122045 | 5 | 346 | 0.0 | 0.0 | 0.00 | 0.00 | 0.00 | 66 | 1017.6 |
| 20260506121545 | 5 | 346 | 0.0 | 0.0 | 0.00 | 0.00 | 0.00 | 66 | 1017.5 |
| 20260506121045 | 5 | 346 | 0.0 | 0.0 | 0.00 | 0.00 | 0.00 | 66 | 1017.6 |
| 20260506120545 | 5 | 346 | 0.0 | 0.0 | 0.00 | 0.00 | 0.00 | 65 | 1017.5 |
| 20260506120045 | 5 | 346 | 0.0 | 0.0 | 0.00 | 0.00 | 0.00 | 66 | 1017.4 |